#timestamp,LO_Frequency,Hit,StdDev 
1632668415.4,286046999.5,N
1632668435.2,286046998.9,N
1632668455.0,286046999.5,N
1632668455.9,286046999.5,N
1632668475.8,286046996.8,N
1632668495.6,286046997.7,N
1632668515.4,286046997.8,N
1632668535.3,286046997.1,N
1632668555.1,286046996.9,N
1632668575.9,286046997.2,N
1632668595.7,286046997.2,N
1632668615.5,286046998.9,N
1632668635.4,286046997.8,N
1632668655.2,286046997.8,N
1632668675.1,286046996.5,N
1632668676.0,286046996.5,N
1632668695.8,286046998.7,N
1632668715.6,286046996.5,N
1632668735.5,286046998.8,N
1632668755.3,286047000.5,N
1632668775.1,286046998.7,N
1632668795.9,286046999.0,N
1632668815.7,286046998.4,N
1632668835.6,286046998.7,N
1632668855.4,286047000.9,N
1632668875.2,286046998.6,N
1632668895.1,286046998.9,N
1632668896.0,286046998.9,N
1632668915.8,286047000.7,N
1632668935.7,286047000.2,N
1632668955.5,286047001.2,N
1632668975.3,286047000.8,N
1632668995.2,286047000.0,N
1632669015.0,286047002.3,N
1632669015.9,286047002.3,N
1632669035.7,286047001.7,N
1632669055.6,286047002.1,N
1632669075.4,286047002.3,N
1632669095.3,286047000.4,N
1632669115.1,286047000.8,N
1632669135.8,286046998.2,N
1632669155.7,286046998.8,N
1632669175.5,286046999.4,N
1632669195.4,286046999.1,N
1632669215.2,286046998.3,N
1632669235.0,286046999.6,N
1632669235.9,286046999.6,N
1632669255.8,286046999.0,N
1632669275.6,286046999.2,N
1632669295.4,286046999.0,N
1632669315.3,286046999.0,N
1632669335.1,286046997.3,N
1632669355.9,286046996.6,N
1632669375.7,286046996.5,N
1632669395.5,286046996.7,N
1632669415.4,286046997.1,N
1632669435.2,286047000.9,N
1632669455.1,286047000.6,N
1632669456.0,286047000.6,N
1632669475.8,286046998.2,N
1632669495.6,286047000.4,N
1632669515.5,286046999.9,N
1632669535.3,286047000.5,N
1632669555.1,286046998.2,N
1632669575.9,286046998.5,N
1632669595.7,286046998.4,N
1632669615.6,286046998.4,N
1632669635.4,286047001.0,N
1632669655.2,286046999.9,N
1632669675.1,286046998.5,N
1632669676.0,286046998.5,N
1632669695.8,286047000.6,N
1632669715.6,286046999.7,N
1632669735.5,286047000.2,N
1632669755.3,286047000.6,N
1632669775.2,286047001.0,N
1632669795.9,286047001.1,N
1632669815.7,286046999.6,N
1632669835.6,286046996.7,N
1632669855.4,286046997.2,N
1632669875.3,286046997.0,N
1632669895.1,286046997.5,N
1632669915.8,286046995.6,N
1632669935.7,286046995.1,Y
1632669955.5,286046997.4,P
1632669975.4,286046996.5,P
1632669995.2,286046998.7,N
1632670015.1,286047000.8,N
1632670016.0,286047000.8,N
1632670035.8,286046999.9,N
1632670055.6,286047000.0,N
1632670075.5,286047002.4,N
1632670095.3,286047002.7,N
1632670115.1,286047002.4,N
1632670135.9,286047000.5,N
1632670155.7,286047001.0,N
1632670175.6,286046999.8,N
1632670195.4,286047002.7,N
1632670215.2,286046998.2,N
1632670235.1,286046998.2,N
1632670236.0,286046998.2,N
1632670255.8,286046998.6,N
1632670275.7,286047000.4,N
1632670295.5,286047000.7,N
1632670315.3,286046998.1,N
1632670335.2,286046998.9,N
1632670355.0,286046999.3,N
1632670355.9,286046999.3,N
1632670375.8,286046996.6,N
1632670395.6,286046998.4,N
1632670415.4,286046998.8,N
1632670435.3,286046998.3,N
1632670455.1,286046996.6,N
1632670475.8,286046996.6,N
1632670495.7,286046996.7,N
1632670515.5,286046997.2,N
1632670535.4,286046996.8,N
1632670555.2,286046997.7,N
1632670575.0,286046999.2,N
1632670575.9,286046999.2,N
1632670595.8,286046997.5,N
1632670615.6,286046996.6,N
1632670635.5,286046999.3,N
1632670655.3,286046996.7,N
1632670675.1,286046997.5,N
1632670695.9,286046998.0,N
1632670715.7,286046998.0,N
1632670735.5,286046996.9,N
1632670755.4,286046997.9,N
1632670775.2,286046996.8,N
1632670795.1,286046999.4,N
1632670796.0,286046999.4,N
1632670815.8,286046997.2,N
1632670835.6,286046997.3,N
1632670855.5,286046997.2,N
1632670875.3,286046997.8,N
1632670895.1,286046997.4,N
1632670915.9,286046997.6,N
1632670935.7,286046996.5,Y
1632670955.6,286046999.8,P
1632670975.4,286047002.3,N
1632670995.2,286047002.6,N
1632671015.1,286046999.8,N
1632671016.0,286046999.8,N
1632671035.8,286046999.4,N
1632671055.7,286046999.2,N
1632671075.5,286046996.8,N
1632671095.3,286046995.2,N
1632671115.2,286046997.6,N
1632671135.0,286046997.9,N
1632671135.9,286046997.9,N
1632671155.7,286046994.9,N
1632671175.6,286046995.1,N
1632671195.4,286046995.1,N
1632671215.3,286046995.4,N
1632671235.1,286046997.8,N
1632671236.0,286046997.8,N
1632671255.8,286046996.9,N
1632671275.7,286046997.9,N
1632671295.5,286046999.3,N
1632671315.3,286046999.3,N
1632671335.2,286046999.6,N
1632671355.0,286046997.2,N
1632671355.9,286046997.2,N
1632671375.8,286046997.0,N
1632671395.6,286046994.9,N
1632671415.4,286046995.2,N
1632671435.3,286046995.8,N
1632671455.1,286046998.0,N
1632671475.9,286046997.3,N
1632671495.7,286046997.6,N
1632671515.5,286046993.4,Y
1632671535.4,286046996.8,P
1632671555.2,286046996.6,P
1632671575.1,286046997.1,P
1632671576.0,286046997.1,Y
1632671595.8,286046999.7,P
1632671615.6,286047001.7,N
1632671635.5,286047002.5,N
1632671655.3,286047001.3,N
1632671675.1,286047001.6,N
1632671695.9,286046999.9,N
1632671715.7,286047000.6,N
1632671735.6,286047002.6,N
1632671755.4,286047004.4,N
1632671775.3,286047002.0,N
1632671795.1,286047002.5,N
1632671815.9,286047001.9,N
1632671835.7,286047001.9,N
1632671855.5,286047004.3,N
1632671875.4,286047002.4,N
1632671895.2,286047002.4,N
1632671915.0,286047002.8,N
1632671915.9,286047002.8,N
1632671935.8,286047002.7,N
1632671955.6,286046999.8,N
1632671975.5,286047000.5,N
1632671995.3,286047000.4,N
